Location: Bastelaar
(51.0950°N, 3.8602°E)
Time: 01:26:14
(UTC+00:00)

ARIANE 6 FM1 Upper Stage - Pass Details

Date: 26 January 2026
Orbit: 522 x 609 km, 62.0° (Epoch: 13 February)

Event Time Altitude Azimuth Distance (km) Brightness Sun altitude
Rises 19:11:39 0° 252° (WSW) 2,693 7.3 -26.0°
Reaches altitude 10° 19:14:00 10° 261° (W) 1,792 6.2 -26.3°
Enters shadow 19:17:21 35° 316° (NW) 870 3.9 -26.9°
